FENGYUN 1C DEB

Satellite information

Favourite Embed

Satellite Type and Status

DEBRISIN ORBIT

Key statistics

Satellite FENGYUN 1C DEB at a glance.

Uptime

9496

Days in orbit

Revolutions

≈ 14.1

Per day

Orbit

SSO

Sun Synchronous Orbit

Inclination

98.8

Latest

Satellite identification and parameters

Extended collection of information and parameters for FENGYUN 1C DEB.

Object identification

Identified? True

Debris? True

Object name: FENGYUN 1C DEB

International designator: 1999-025HK

Object number (NORAD): 29913

Object ID (CCSDS): 29913

Country: PEOPLES REPUBLIC OF CHINA (PRC)

Current information (Y/N): Y

RCS size: SMALL

Orbital parameters

Period: 102.337 minutes

Inclination: 98.7821 deg

SMA: 7247.377 km

Apoapsis: 915.144 km

Periapsis: 823.341 km

RAAN: 133.4108 deg

Eccentricy: 0.0063335

Argument of periapsis: 164.5206 deg

Mean anomaly: 349.0452 deg

Mean motion: 14.0712098 rev/day

Mean motion (dot): 0.00000622 rev/day2

B* drag term: 0.00038989 1/REarth

Two-line elements (TLE)

Creation date: May 9, 2025, 2:46 a.m.

Reference frame: TEME

Reference center: EARTH

Epoch: May 8, 2025, 11:37 a.m. UTC

TLE line 0: 0 FENGYUN 1C DEB

TLE line 1: 1 29913U 99025HK 25128.48437895 .00000622 00000-0 38989-3 0 9995

TLE line 2: 2 29913 98.7821 133.4108 0063335 164.5206 349.0452 14.07120980938958

Live tracking on map

Real-time ground track for satellite FENGYUN 1C DEB.

In-orbit conjunctions

A list of the most updated potential collisions computed for object FENGYUN 1C DEB.

Target Orbit TCA Probability of collision Miss distance Type
CZ-6A DEB LEO 2025-04-18 00:44:36 0.0003707867 28.0 (m) DEBRIS
SL-16 DEB LEO 2025-03-25 06:52:17 0.0001621311 235.0 (m) DEBRIS
METEOR 1-17 DEB LEO 2024-11-12 10:15:23 0.0002881297 412.0 (m) DEBRIS

Associated space launch

Chinese polar orbiting meteorological satellite

FENGYUN 1C DEB was lifted into orbit during the mission ‘Long March 4B | Feng Yun 1C’, on board a Long March 4B space rocket.

The launch took place on May 10, 1999, 1:33 a.m. from Launch Complex 7.

For more information about the launch, click the button.

Launch to space Long March 4B | Feng Yun 1C
Long March 4B | Feng Yun 1C

Agency: N/A

Status: Launch Successful

Launch date: May 10, 1999, 1:33 a.m. UTC

Rocket: Long March 4B

Launch pad: Launch Complex 7

Location: Taiyuan Satellite Launch Center, People's Republic of China

...

Latest news about this satellite

There are no fresh news available about this satellite. Check back as we update our databases every day.


Newsletter sign-up

Weekly statistics, charts and insights to help you stay on top of the space industry.